• In Russia
  • List of Countries
  • For 7 days
  • Water Temperature
  • Satellite Maps
  • Weather Map
  • Weather Widgets
  • user-avatar
    Login

    Hourly Weather Kirillinskiy

    Today, 23 September, Sunday

    Time Temperature Precipitation Wind Pressure Humidity
    00:00 +18°C° 0 mm 1 mps 762 mmHg 87%
    01:00 +16°C° 0 mm 1 mps 762 mmHg 87%
    02:00 +16°C° 0 mm 1 mps 762 mmHg 88%
    03:00 +16°C° 0 mm 1 mps 762 mmHg 89%
    04:00 +16°C° 0 mm 1 mps 761 mmHg 89%
    05:00 +16°C° 0 mm 1 mps 761 mmHg 89%
    06:00 +15°C° 0 mm 2 mps 761 mmHg 90%
    07:00 +17°C° 0 mm 2 mps 761 mmHg 83%
    08:00 +19°C° 0 mm 2 mps 761 mmHg 76%
    09:00 +21°C° 0 mm 3 mps 761 mmHg 69%
    10:00 +22°C° 0 mm 3 mps 760 mmHg 64%
    11:00 +23°C° 0 mm 4 mps 760 mmHg 60%
    12:00 +25°C° 0 mm 4 mps 760 mmHg 55%
    13:00 +25°C° 0 mm 4 mps 760 mmHg 55%
    14:00 +25°C° 0 mm 4 mps 759 mmHg 54%
    15:00 +26°C° 0 mm 4 mps 759 mmHg 53%
    16:00 +23°C° 0 mm 4 mps 759 mmHg 58%
    17:00 +22°C° 0 mm 3 mps 758 mmHg 62%
    18:00 +20°C° 0 mm 3 mps 758 mmHg 67%
    19:00 +19°C° 0 mm 3 mps 758 mmHg 64%
    20:00 +19°C° 0 mm 3 mps 758 mmHg 62%
    21:00 +18°C° 0 mm 4 mps 758 mmHg 60%
    22:00 +18°C° 0 mm 4 mps 757 mmHg 56%
    23:00 +17°C° 0 mm 4 mps 757 mmHg 51%

    Tomorrow, 24 September, Monday

    Time Temperature Precipitation Wind Pressure Humidity
    00:00 +17°C° 0 mm 4 mps 756 mmHg 47%
    01:00 +15°C° 0 mm 4 mps 756 mmHg 45%
    02:00 +15°C° 0 mm 4 mps 756 mmHg 43%
    03:00 +15°C° 0 mm 5 mps 755 mmHg 41%
    04:00 +14°C° 0 mm 5 mps 755 mmHg 42%
    05:00 +14°C° 0 mm 5 mps 754 mmHg 44%
    06:00 +14°C° 0 mm 6 mps 754 mmHg 46%
    07:00 +15°C° 0 mm 6 mps 754 mmHg 46%
    08:00 +16°C° 0 mm 6 mps 754 mmHg 47%
    09:00 +17°C° 0 mm 6 mps 754 mmHg 48%
    10:00 +16°C° 0.4 mm 6 mps 754 mmHg 58%
    11:00 +15°C° 0.4 mm 5 mps 754 mmHg 67%
    12:00 +15°C° 0.4 mm 5 mps 755 mmHg 76%
    13:00 +14°C° 0.2 mm 5 mps 755 mmHg 77%
    14:00 +13°C° 0.2 mm 5 mps 755 mmHg 78%
    15:00 +13°C° 0.2 mm 5 mps 756 mmHg 79%
    16:00 +12°C° 0 mm 4 mps 756 mmHg 79%
    17:00 +11°C° 0 mm 3 mps 756 mmHg 80%
    18:00 +12°C° 0 mm 2 mps 757 mmHg 80%
    19:00 +10°C° 0 mm 2 mps 757 mmHg 82%
    20:00 +10°C° 0 mm 2 mps 757 mmHg 83%
    21:00 +10°C° 0 mm 1 mps 758 mmHg 85%
    22:00 +10°C° 0 mm 1 mps 758 mmHg 85%
    23:00 +10°C° 0 mm 1 mps 758 mmHg 86%

    Day after tomorrow, 25 September, Tuesday

    Time Temperature Precipitation Wind Pressure Humidity
    00:00 +9°C° 0 mm 1 mps 757 mmHg 86%
    01:00 +9°C° 0 mm 1 mps 757 mmHg 87%
    02:00 +9°C° 0 mm 1 mps 757 mmHg 87%
    03:00 +9°C° 0 mm 1 mps 757 mmHg 87%
    04:00 +8°C° 0 mm 2 mps 757 mmHg 86%
    05:00 +8°C° 0 mm 2 mps 757 mmHg 85%
    06:00 +9°C° 0 mm 3 mps 756 mmHg 84%
    07:00 +10°C° 0 mm 4 mps 756 mmHg 78%
    08:00 +11°C° 0 mm 4 mps 756 mmHg 73%
    09:00 +12°C° 0 mm 5 mps 755 mmHg 67%
    10:00 +13°C° 0 mm 6 mps 755 mmHg 64%
    11:00 +14°C° 0 mm 6 mps 755 mmHg 60%
    12:00 +15°C° 0 mm 7 mps 754 mmHg 56%
    13:00 +16°C° 0.1 mm 6 mps 754 mmHg 56%
    14:00 +16°C° 0.1 mm 6 mps 753 mmHg 57%
    15:00 +16°C° 0.1 mm 6 mps 753 mmHg 58%
    16:00 +16°C° 0 mm 6 mps 753 mmHg 57%
    17:00 +16°C° 0 mm 6 mps 753 mmHg 56%
    18:00 +17°C° 0 mm 6 mps 752 mmHg 55%
    19:00 +16°C° 0.3 mm 6 mps 753 mmHg 61%
    20:00 +16°C° 0.3 mm 6 mps 753 mmHg 68%
    21:00 +15°C° 0.3 mm 5 mps 753 mmHg 74%
    22:00 +14°C° 0.6 mm 5 mps 754 mmHg 78%
    23:00 +13°C° 0.6 mm 4 mps 754 mmHg 82%

    26 September, Wednesday

    Time Temperature Precipitation Wind Pressure Humidity
    00:00 +11°C° 0.6 mm 3 mps 755 mmHg 85%
    01:00 +11°C° 0 mm 3 mps 755 mmHg 84%
    02:00 +11°C° 0 mm 3 mps 756 mmHg 83%
    03:00 +10°C° 0 mm 3 mps 756 mmHg 82%
    04:00 +10°C° 0 mm 3 mps 757 mmHg 84%
    05:00 +9°C° 0 mm 3 mps 757 mmHg 86%
    06:00 +8°C° 0 mm 3 mps 757 mmHg 88%
    07:00 +9°C° 0 mm 3 mps 758 mmHg 82%
    08:00 +10°C° 0 mm 4 mps 758 mmHg 77%
    09:00 +11°C° 0 mm 4 mps 759 mmHg 71%
    10:00 +11°C° 0 mm 4 mps 759 mmHg 69%
    11:00 +11°C° 0 mm 4 mps 760 mmHg 66%
    12:00 +12°C° 0 mm 4 mps 760 mmHg 64%
    13:00 +12°C° 0 mm 4 mps 760 mmHg 63%
    14:00 +12°C° 0 mm 4 mps 761 mmHg 61%
    15:00 +12°C° 0 mm 4 mps 761 mmHg 60%
    16:00 +12°C° 0 mm 3 mps 761 mmHg 63%
    17:00 +11°C° 0 mm 3 mps 761 mmHg 65%
    18:00 +10°C° 0 mm 2 mps 762 mmHg 68%
    19:00 +10°C° 0 mm 2 mps 762 mmHg 69%
    20:00 +9°C° 0 mm 2 mps 762 mmHg 71%
    21:00 +9°C° 0 mm 2 mps 763 mmHg 73%
    22:00 +8°C° 0 mm 2 mps 763 mmHg 76%
    23:00 +8°C° 0 mm 2 mps 763 mmHg 79%

    27 September, Thursday

    Time Temperature Precipitation Wind Pressure Humidity
    00:00 +7°C° 0 mm 2 mps 763 mmHg 83%
    01:00 +7°C° 0 mm 2 mps 763 mmHg 86%
    02:00 +6°C° 0 mm 2 mps 763 mmHg 89%
    03:00 +6°C° 0 mm 2 mps 763 mmHg 93%
    04:00 +5°C° 0 mm 2 mps 763 mmHg 93%
    05:00 +5°C° 0 mm 2 mps 763 mmHg 94%
    06:00 +5°C° 0 mm 2 mps 763 mmHg 94%
    07:00 +5°C° 0 mm 3 mps 762 mmHg 87%
    08:00 +8°C° 0 mm 3 mps 762 mmHg 79%
    09:00 +8°C° 0 mm 4 mps 762 mmHg 71%
    10:00 +9°C° 0 mm 5 mps 761 mmHg 66%
    11:00 +10°C° 0 mm 5 mps 761 mmHg 62%
    12:00 +11°C° 0 mm 6 mps 760 mmHg 57%
    13:00 +11°C° 0 mm 6 mps 760 mmHg 56%
    14:00 +11°C° 0 mm 6 mps 759 mmHg 55%
    15:00 +12°C° 0 mm 7 mps 758 mmHg 54%
    16:00 +11°C° 0 mm 6 mps 758 mmHg 54%
    17:00 +10°C° 0 mm 6 mps 757 mmHg 55%
    18:00 +9°C° 0 mm 5 mps 757 mmHg 55%
    19:00 +9°C° 0 mm 6 mps 757 mmHg 52%
    20:00 +9°C° 0 mm 6 mps 756 mmHg 49%
    21:00 +9°C° 0 mm 6 mps 756 mmHg 46%
    22:00 +8°C° 0.3 mm 7 mps 755 mmHg 52%
    23:00 +8°C° 0.3 mm 7 mps 755 mmHg 58%

    28 September, Friday

    Time Temperature Precipitation Wind Pressure Humidity
    00:00 +6°C° 0.3 mm 7 mps 754 mmHg 64%
    01:00 +6°C° 0.5 mm 7 mps 754 mmHg 69%
    02:00 +6°C° 0.5 mm 7 mps 753 mmHg 74%
    03:00 +5°C° 0.5 mm 7 mps 753 mmHg 78%
    04:00 +6°C° 0 mm 7 mps 753 mmHg 80%
    05:00 +7°C° 0 mm 6 mps 753 mmHg 81%
    06:00 +7°C° 0 mm 6 mps 753 mmHg 82%
    07:00 +8°C° 0 mm 6 mps 753 mmHg 78%
    08:00 +9°C° 0 mm 7 mps 753 mmHg 74%
    09:00 +9°C° 0 mm 7 mps 754 mmHg 70%
    10:00 +10°C° 0.1 mm 7 mps 754 mmHg 66%
    11:00 +11°C° 0.1 mm 7 mps 754 mmHg 61%
    12:00 +12°C° 0.1 mm 7 mps 754 mmHg 56%
    13:00 +12°C° 0.1 mm 7 mps 754 mmHg 54%
    14:00 +12°C° 0.1 mm 7 mps 754 mmHg 52%
    15:00 +12°C° 0.1 mm 7 mps 754 mmHg 50%
    16:00 +11°C° 0 mm 6 mps 754 mmHg 54%
    17:00 +10°C° 0 mm 5 mps 754 mmHg 58%
    18:00 +10°C° 0 mm 3 mps 755 mmHg 62%
    19:00 +10°C° 0 mm 3 mps 754 mmHg 63%
    20:00 +8°C° 0 mm 4 mps 754 mmHg 64%
    21:00 +8°C° 0 mm 4 mps 754 mmHg 64%
    22:00 +8°C° 0.5 mm 4 mps 754 mmHg 69%
    23:00 +8°C° 0.5 mm 4 mps 753 mmHg 74%
    Show more